AMOS-17

Last updated on Mon Oct 14 2024 00:02:41 GMT+0000 (Coordinated Universal Time)

1 44479U 19050A 24287.35327233 .00000108 00000+0 00000+0 0 9991 2 44479 0.0151 181.5151 0002470 28.0809 316.9779 1.00270064 19056
UTC large
Height (km)
Speed (km/s)
/
Latitude / Longitude
Inclination (degrees)
Orbital Period (minutes)
Azimuth
Elevation
Range (km)
Doppler Factor

Next 0 passes for location: London (51.5072 / 0.1276)

Sorry there are no passes over London.